Dewpoint
-16 -17 -18 -18 -17 -15 -13 -13 -14 -14 -13 -13 -13 -12 -14 -15 -15 -16 -17 -15 -15 -14 -15 -15 -19 -18 -15 -10 -9 -9 -7 -5 -4 -3 -2 1 3 6 8 8 9 10 9 10
-14 -19 -20 -20 -21 -20 -16 -13 -13 -13 -12 -14 -15 -15 -15 -15 -15 -17 -18 -16 -16 -15 -15 -15 -17 -18 -18 -14 -10 -10 -8 -7 -5 -4 -2 1 2 3 6 6 8 9 9 9
-12 -19 -18 -16 -18 -19 -18 -16 -14 -15 -14 -18 -16 -18 -18 -16 -15 -15 -17 -16 -16 -15 -15 -16 -16 -17 -18 -17 -13 -10 -9 -8 -7 -5 -4 -2 0 0 3 4 5 7 7 9
-10 -14 -9 -16 -21 -20 -20 -18 -16 -15 -15 -17 -18 -20 -17 -16 -16 -17 -15 -16 -15 -15 -15 -17 -17 -17 -17 -16 -17 -14 -10 -9 -8 -6 -5 -4 -2 -1 0 3 4 6 6 7
-10 -13 -15 -19 -21 -17 -16 -19 -23 -19 -20 -21 -23 -19 -20 -18 -21 -19 -17 -17 -16 -15 -15 -17 -17 -17 -16 -16 -16 -18 -16 -10 -9 -8 -7 -5 -4 -2 -0 1 2 5 5 5
-12 -11 -10 -16 -22 -21 -22 -16 -25 -26 -25 -25 -26 -21 -24 -22 -21 -20 -19 -18 -18 -17 -16 -17 -17 -18 -16 -16 -17 -18 -19 -17 -10 -9 -8 -7 -6 -5 -4 -3 -1 1 3 4
-10 -9 -13 -19 -21 -21 -14 -18 -27 -25 -24 -24 -23 -23 -25 -22 -21 -20 -19 -18 -18 -16 -16 -17 -17 -18 -16 -16 -19 -19 -19 -19 -16 -10 -9 -8 -8 -7 -6 -4 -3 -2 -1 -0
-13 -11 -8 -20 -20 -16 -15 -21 -25 -24 -23 -23 -22 -23 -23 -22 -21 -21 -20 -18 -17 -17 -16 -17 -17 -19 -16 -16 -20 -20 -19 -19 -20 -14 -10 -9 -9 -8 -7 -6 -5 -4 -3 -3
-12 -12 -15 -19 -14 -20 -22 -22 -18 -20 -20 -19 -19 -20 -21 -22 -20 -18 -19 -18 -17 -17 -17 -17 -16 -19 -18 -18 -20 -20 -19 -19 -19 -20 -15 -10 -9 -9 -9 -8 -7 -7 -6 -5
-13 -8 -12 -15 -18 -20 -21 -22 -23 -23 -23 -23 -22 -20 -19 -19 -19 -22 -23 -20 -17 -17 -17 -17 -16 -17 -19 -19 -20 -20 -20 -19 -19 -21 -20 -16 -11 -10 -10 -10 -10 -9 -8 -8
-13 -13 -14 -16 -17 -18 -19 -22 -24 -26 -24 -22 -23 -25 -24 -21 -21 -22 -24 -23 -22 -21 -20 -19 -18 -19 -19 -19 -19 -21 -22 -18 -18 -19 -20 -19 -18 -14 -12 -11 -11 -11 -10 -10
-9 -11 -11 -12 -24 -26 -25 -24 -24 -23 -22 -22 -21 -25 -26 -25 -22 -23 -24 -23 -23 -22 -20 -20 -20 -20 -20 -19 -19 -20 -21 -18 -19 -20 -20 -18 -17 -17 -19 -21 -20 -14 -11 -11
-10 -17 -21 -22 -22 -22 -22 -22 -22 -22 -23 -23 -23 -25 -25 -25 -24 -24 -24 -23 -23 -22 -21 -19 -19 -20 -20 -19 -19 -20 -21 -21 -18 -19 -20 -21 -18 -17 -18 -19 -22 -24 -24 -23
-18 -19 -19 -20 -20 -21 -21 -21 -21 -21 -21 -22 -24 -25 -24 -25 -25 -24 -23 -22 -22 -22 -23 -21 -19 -20 -20 -20 -19 -20 -21 -21 -22 -22 -21 -21 -21 -22 -20 -20 -20 -21 -23 -24
-17 -18 -19 -20 -20 -20 -20 -19 -17 -20 -20 -20 -20 -23 -24 -24 -24 -23 -22 -21 -21 -22 -22 -22 -19 -19 -19 -19 -19 -20 -20 -20 -20 -20 -21 -21 -22 -22 -22 -22 -22 -22 -22 -22
-18 -19 -19 -20 -20 -19 -16 -12 -18 -20 -20 -21 -20 -20 -22 -22 -22 -21 -21 -21 -22 -22 -20 -20 -18 -19 -19 -19 -19 -19 -19 -19 -19 -16 -19 -20 -21 -21 -22 -22 -22 -22 -22 -23
-16 -17 -17 -16 -13 -11 -12 -17 -20 -20 -21 -21 -21 -20 -21 -21 -21 -21 -20 -21 -20 -19 -18 -19 -18 -18 -19 -19 -18 -18 -18 -17 -17 -18 -17 -19 -19 -20 -21 -21 -21 -21 -22 -23
-21 -21 -16 -12 -9 -8 -11 -13 -12 -12 -20 -21 -20 -20 -20 -21 -20 -19 -20 -20 -18 -18 -17 -18 -18 -18 -18 -18 -18 -17 -17 -16 -16 -17 -17 -18 -19 -19 -18 -18 -19 -18 -19 -21
-7 -11 -11 -6 -7 -7 -8 -10 -14 -18 -20 -20 -20 -20 -21 -20 -19 -20 -20 -19 -17 -17 -16 -16 -17 -18 -18 -18 -17 -17 -16 -15 -15 -16 -17 -16 -16 -16 -16 -16 -17 -17 -18 -18
-4 -6 -7 -6 -7 -8 -9 -11 -15 -19 -20 -21 -21 -20 -20 -19 -19 -20 -20 -16 -16 -16 -16 -15 -16 -17 -18 -18 -17 -16 -16 -15 -15 -16 -16 -17 -17 -17 -17 -17 -17 -17 -17 -17
-4 -5 -7 -7 -8 -9 -9 -15 -20 -20 -20 -21 -21 -20 -19 -18 -19 -20 -19 -16 -16 -16 -16 -15 -16 -15 -15 -16 -16 -15 -15 -15 -16 -16 -16 -16 -17 -17 -17 -17 -17 -17 -17 -17
-5 -6 -7 -8 -9 -11 -18 -20 -19 -19 -20 -20 -19 -19 -18 -18 -18 -20 -20 -18 -17 -17 -16 -16 -16 -16 -16 -16 -16 -16 -16 -16 -16 -17 -17 -17 -17 -17 -17 -17 -17 -17 -17 -17
-6 -7 -8 -9 -11 -15 -16 -17 -18 -19 -19 -19 -18 -18 -17 -17 -18 -18 -17 -18 -19 -19 -19 -18 -19 -19 -17 -17 -17 -17 -17 -17 -17 -17 -17 -17 -17 -17 -18 -18 -17 -17 -17 -18
-8 -8 -9 -11 -19 -19 -20 -20 -19 -18 -18 -18 -18 -17 -17 -19 -21 -21 -20 -21 -20 -18 -18 -18 -18 -17 -17 -17 -17 -17 -17 -17 -17 -17 -17 -17 -17 -17 -17 -18 -18 -17 -18 -18
-9 -9 -10 -17 -22 -21 -20 -19 -19 -18 -17 -17 -17 -17 -20 -21 -21 -21 -22 -21 -21 -20 -19 -19 -19 -18 -18 -18 -19 -19 -19 -19 -18 -18 -18 -18 -18 -18 -18 -18 -18 -18 -18 -18
-10 -10 -14 -21 -21 -20 -19 -19 -18 -17 -17 -17 -17 -20 -21 -21 -21 -21 -20 -19 -19 -20 -20 -20 -20 -20 -20 -20 -20 -20 -20 -20 -20 -20 -19 -19 -19 -19 -19 -19 -19 -19 -19 -19
-11 -13 -20 -20 -20 -19 -19 -18 -17 -17 -17 -17 -20 -21 -21 -21 -20 -19 -20 -20 -20 -20 -20 -21 -21 -20 -20 -20 -20 -20 -20 -20 -21 -20 -20 -20 -20 -20 -20 -20 -20 -20 -20 -20
Wind_Speed
15 20 18 17 16 10 11 9 7 4 8 17 15 14 18 15 16 15 17 16 17 20 23 24 26 25 26 25 23 24 20 18 16 14 8 5 9 23 30 29 40 41 38 38
8 7 6 12 15 14 15 14 17 19 22 15 14 10 14 15 15 15 16 13 15 17 18 21 24 25 25 25 23 22 21 20 17 15 13 4 4 6 18 24 33 41 40 41
5 2 14 13 12 17 9 10 7 7 10 7 9 11 14 12 13 14 13 12 13 14 16 18 19 22 25 24 23 22 21 19 18 16 17 13 5 4 9 12 15 28 25 37
7 12 4 3 2 1 12 13 15 17 17 16 14 13 14 13 12 12 10 11 12 12 14 15 16 18 19 20 20 22 21 20 19 18 16 14 9 7 8 9 10 9 14 17
4 6 13 4 5 4 5 9 8 16 15 14 12 7 19 8 5 7 8 9 11 11 12 13 14 16 16 17 19 19 20 20 20 20 18 16 15 12 8 4 8 9 9 6
1 4 4 3 6 3 2 5 9 9 9 8 6 6 6 0 4 7 8 9 10 10 10 10 11 14 14 16 17 18 19 20 18 18 18 17 17 14 12 9 6 9 11 14
9 6 9 4 10 7 3 3 2 8 9 9 7 11 12 6 7 8 9 9 9 9 10 9 11 11 12 13 16 17 17 17 17 15 16 16 14 13 11 9 8 8 7 8
5 6 8 16 10 5 2 1 2 5 9 11 13 14 14 12 10 10 10 9 9 10 9 9 9 10 10 12 14 15 15 15 15 14 11 12 14 13 12 11 9 9 9 9
8 6 4 28 9 16 11 9 7 9 10 11 13 14 13 13 10 10 10 9 9 10 10 10 9 9 10 11 13 14 13 14 13 12 12 11 11 12 14 13 12 11 10 8
3 4 19 24 32 32 29 28 25 22 20 16 18 16 13 13 14 13 12 10 10 11 11 10 9 10 10 11 12 12 11 11 11 11 11 11 9 11 12 13 14 13 12 10
8 21 27 22 20 19 16 14 16 14 16 17 16 18 16 18 17 16 14 14 13 14 14 14 12 12 11 11 11 10 10 9 8 9 9 9 9 10 10 10 11 13 14 13
7 3 6 3 4 5 9 11 12 14 17 17 16 17 15 17 17 16 16 15 16 16 16 15 15 14 13 11 10 8 6 7 7 7 7 7 7 6 7 8 8 9 8 10
5 7 11 11 16 20 20 17 16 18 17 18 16 17 16 17 17 17 17 17 17 18 18 17 17 16 13 11 9 7 5 5 5 7 7 7 6 6 6 6 7 8 7 8
28 29 25 21 13 8 13 15 16 18 18 17 17 18 17 18 18 18 17 18 20 21 21 20 18 16 14 13 10 7 5 3 3 5 6 6 6 6 7 7 7 7 6 7
21 23 28 27 30 29 27 24 26 25 22 20 18 19 19 19 18 17 18 19 21 21 20 20 19 15 15 14 12 9 6 4 3 4 5 6 7 8 8 8 8 8 7 6
15 16 18 21 24 26 26 26 27 25 24 22 21 20 19 18 17 17 18 19 19 18 16 16 17 14 15 15 13 11 8 6 6 5 6 6 7 8 8 8 8 8 8 8
23 24 19 19 18 21 21 20 19 19 19 18 17 17 17 16 15 16 16 16 16 14 14 14 15 15 17 16 15 13 11 9 7 8 8 9 8 9 10 10 10 9 8 7
23 24 21 22 22 21 19 18 18 19 18 15 14 15 15 14 13 13 14 14 13 13 12 12 14 15 17 17 17 16 14 12 11 11 11 11 11 11 11 10 10 10 10 9
24 26 24 23 21 21 21 19 19 18 16 14 15 15 13 12 12 13 12 12 11 11 9 9 12 15 17 17 17 18 17 15 14 13 13 12 11 11 12 12 11 11 11 10
25 24 24 22 21 21 20 18 16 15 14 14 14 13 12 11 11 11 11 10 9 9 10 9 8 11 15 17 18 19 18 16 15 14 13 12 13 13 13 12 12 11 10 9
27 24 21 20 20 18 16 14 13 13 13 14 14 12 10 10 10 10 9 7 7 8 8 8 7 7 8 11 12 14 16 18 16 15 16 15 15 14 15 14 13 12 11 10
26 21 18 18 17 14 12 11 11 12 13 13 12 11 10 9 10 10 10 10 10 8 8 8 9 10 9 9 11 14 17 18 19 18 18 18 17 16 15 15 15 13 12 12
22 17 16 15 12 11 11 10 11 12 13 12 11 10 9 8 8 7 5 9 9 9 9 9 9 9 9 10 13 14 16 17 17 18 17 17 17 17 16 15 14 14 14 13
17 15 14 10 10 10 9 9 11 12 12 10 9 9 8 8 7 7 8 9 7 6 8 11 9 6 10 14 16 17 18 19 19 19 20 19 20 20 20 19 18 17 17 16
14 12 9 7 7 7 8 9 12 12 11 9 8 8 7 6 6 7 6 6 7 8 11 12 9 8 18 19 20 21 22 22 23 24 24 24 23 23 22 23 22 21 21 21
12 9 6 6 6 7 9 10 11 10 10 8 8 6 5 5 5 5 5 6 7 8 10 11 11 13 14 16 19 20 21 22 23 23 22 24 23 24 25 26 26 25 24 24
9 5 7 6 7 8 8 10 10 9 9 8 7 5 5 4 4 4 4 5 7 8 9 10 11 12 14 15 17 18 19 20 21 21 22 23 23 25 27 28 28 27 28 28
Wind_Direction
278 281 283 276 273 225 201 229 245 308 288 289 302 305 307 305 314 321 329 331 337 340 341 345 354 2 5 12 16 12 10 20 26 16 41 137 187 214 217 201 200 206 202 219
290 280 296 275 269 252 230 231 254 264 277 272 277 292 302 303 311 318 323 323 331 335 339 344 348 355 1 7 12 13 17 18 21 15 29 79 109 162 203 217 209 206 202 206
274 290 300 275 251 223 217 201 205 236 279 315 290 306 310 310 309 313 315 317 325 331 335 340 344 347 359 0 2 10 18 17 23 20 33 48 113 119 157 170 191 200 205 196
294 315 259 80 80 339 232 254 222 257 272 280 285 297 293 284 288 301 304 311 317 324 331 336 341 348 354 353 5 6 12 16 19 24 27 32 43 83 118 130 136 160 189 187
275 283 277 289 191 181 187 283 256 240 266 271 282 315 293 227 265 292 297 306 310 320 325 330 336 344 352 353 3 6 12 16 20 25 22 28 35 43 71 126 126 143 152 134
202 283 278 73 160 146 156 260 180 216 272 280 291 287 339 43 301 295 297 301 302 310 319 324 330 342 351 354 357 4 11 13 19 24 25 28 28 39 48 68 106 155 178 223
234 258 276 136 151 155 280 26 202 236 274 278 254 263 303 280 290 289 296 294 293 302 310 316 324 338 344 347 356 1 7 9 17 24 31 33 32 38 42 57 78 98 127 150
210 238 262 143 138 205 33 183 304 267 269 276 271 277 277 273 276 284 290 289 286 291 299 305 312 325 333 336 348 357 5 5 12 15 26 39 40 41 47 57 67 80 90 92
213 239 115 183 220 226 265 265 270 265 272 269 270 274 272 269 265 271 282 282 278 281 291 297 297 310 319 325 339 346 357 1 8 8 11 25 31 37 44 48 45 51 53 64
349 252 237 237 256 262 270 273 280 279 281 271 269 275 267 258 258 269 280 282 279 281 285 288 286 294 303 314 328 336 342 348 -0 6 14 15 17 30 30 36 36 38 31 27
257 278 278 273 259 269 271 271 276 275 276 276 271 275 269 260 259 268 274 279 282 283 282 282 279 283 290 302 318 328 331 340 354 0 10 19 20 13 15 19 19 23 28 14
231 226 261 284 291 273 269 278 272 269 279 281 270 275 268 262 257 260 268 274 280 284 282 279 277 275 275 286 302 312 324 329 342 355 5 15 24 23 6 4 358 6 11 11
270 267 254 264 286 287 282 276 271 274 276 275 267 264 257 259 257 261 267 274 280 283 277 267 265 268 265 268 278 284 299 320 338 350 358 5 7 9 360 2 360 356 353 346
253 262 280 280 268 276 289 282 272 270 270 269 265 255 254 254 256 264 273 279 281 281 276 264 257 257 253 254 255 257 268 294 329 341 348 354 358 359 352 352 354 353 350 348
266 261 264 271 277 280 284 283 279 274 271 266 262 256 252 255 260 270 276 281 284 282 276 262 252 248 244 244 241 239 244 267 293 313 331 340 345 348 345 341 339 342 341 344
284 281 277 271 283 284 286 285 277 277 275 265 258 254 255 256 261 269 279 284 283 283 281 258 247 242 238 238 231 234 239 252 276 294 307 318 324 330 328 328 329 329 331 342
276 283 290 278 288 299 296 292 279 279 276 264 255 248 247 250 259 273 282 283 282 280 277 254 242 235 233 232 228 231 238 250 264 280 294 303 310 312 311 313 312 313 315 317
289 286 278 279 285 291 289 285 280 280 271 262 244 234 236 244 262 275 282 282 280 279 280 259 242 236 236 231 229 232 240 251 266 277 283 291 295 298 302 298 298 300 303 305
293 290 284 283 286 292 290 282 276 275 261 247 231 229 235 247 264 276 276 275 276 279 284 269 248 238 238 235 234 236 244 252 262 270 277 281 283 288 286 290 287 287 288 290
292 288 283 279 287 293 291 279 272 260 250 234 222 220 233 251 267 275 273 266 259 249 260 268 262 244 238 238 238 242 246 255 261 263 267 276 279 280 277 273 281 280 282 283
296 291 279 278 291 296 288 274 261 249 235 221 221 227 238 253 267 270 266 268 267 267 258 251 255 253 238 237 232 234 254 258 261 265 270 270 271 262 264 269 270 272 270 265
300 289 278 288 295 291 278 264 250 228 221 218 219 229 242 260 270 270 261 247 250 260 259 259 249 247 250 248 247 246 245 257 262 265 265 267 267 264 261 259 261 264 264 264
291 280 283 291 290 276 268 254 230 220 218 219 225 235 250 258 262 256 262 266 255 260 263 270 268 270 272 264 258 260 265 267 265 263 264 265 266 267 264 262 264 267 265 262
280 280 286 289 279 266 251 229 212 210 213 218 228 243 258 262 258 250 249 257 254 248 257 265 274 288 271 258 258 257 255 256 258 261 264 264 265 266 265 261 259 255 257 256
279 283 282 272 254 230 214 205 203 206 210 220 235 251 249 242 237 258 256 259 262 264 264 274 276 262 262 266 268 269 269 269 267 266 265 264 262 259 258 262 264 262 264 262
281 276 259 237 216 208 205 199 200 203 208 222 235 236 240 238 240 257 271 280 283 282 283 290 287 284 277 274 276 277 276 275 273 267 261 260 262 264 261 259 262 261 256 256
268 247 228 207 198 197 194 195 200 199 211 220 222 218 217 231 251 276 289 298 299 301 301 300 298 295 293 291 287 285 282 280 276 275 277 272 266 262 262 264 264 264 263 261
Height
1516 1510 1507 1505 1505 1512 1531 1517 1514 1488 1496 1484 1483 1482 1479 1477 1475 1472 1469 1466 1462 1457 1452 1448 1444 1441 1437 1429 1426 1422 1415 1411 1406 1406 1405 1400 1400 1403 1407 1408 1413 1421 1424 1432
1510 1497 1504 1501 1497 1497 1503 1515 1511 1504 1499 1484 1480 1480 1478 1475 1473 1471 1469 1466 1463 1459 1455 1450 1445 1441 1439 1433 1429 1426 1420 1414 1409 1409 1402 1397 1400 1403 1402 1406 1411 1415 1416 1424
1500 1499 1497 1485 1476 1481 1485 1489 1496 1492 1473 1474 1475 1475 1474 1473 1472 1470 1469 1466 1463 1460 1456 1452 1447 1443 1435 1434 1429 1425 1421 1418 1415 1411 1400 1401 1402 1405 1406 1406 1408 1407 1413 1417
1513 1498 1480 1475 1476 1476 1476 1477 1480 1481 1474 1473 1473 1472 1471 1470 1470 1469 1467 1465 1463 1459 1456 1452 1449 1444 1441 1440 1433 1427 1422 1419 1415 1410 1409 1407 1406 1403 1403 1402 1405 1407 1412 1412
1521 1502 1471 1465 1473 1480 1480 1468 1465 1467 1467 1468 1469 1470 1464 1465 1467 1466 1466 1464 1461 1459 1456 1453 1450 1445 1442 1439 1433 1432 1427 1422 1419 1413 1412 1407 1404 1401 1399 1401 1402 1405 1408 1414
1523 1514 1469 1463 1476 1478 1479 1466 1462 1464 1464 1465 1465 1465 1460 1463 1463 1463 1463 1462 1460 1458 1456 1454 1450 1445 1442 1440 1437 1433 1430 1426 1421 1420 1414 1410 1409 1408 1407 1406 1406 1406 1409 1412
1516 1506 1474 1464 1474 1478 1468 1456 1460 1462 1462 1462 1463 1462 1461 1460 1461 1460 1459 1459 1458 1456 1454 1452 1449 1446 1444 1442 1439 1436 1431 1430 1426 1422 1419 1417 1417 1414 1412 1410 1409 1410 1409 1409
1505 1499 1481 1466 1476 1472 1455 1456 1457 1458 1458 1458 1458 1457 1458 1458 1458 1458 1457 1456 1455 1454 1452 1451 1449 1447 1445 1443 1440 1436 1432 1431 1428 1427 1427 1424 1420 1418 1416 1414 1415 1413 1412 1414
1482 1456 1455 1456 1453 1454 1453 1454 1454 1454 1454 1454 1454 1453 1454 1454 1454 1454 1454 1453 1452 1452 1450 1449 1447 1445 1444 1441 1438 1436 1434 1431 1429 1430 1426 1422 1423 1423 1420 1417 1417 1415 1416 1416
1481 1444 1449 1452 1450 1450 1450 1449 1449 1449 1448 1449 1448 1448 1449 1449 1449 1449 1449 1449 1449 1448 1448 1446 1445 1444 1443 1441 1439 1436 1435 1433 1431 1429 1426 1425 1425 1422 1422 1422 1422 1420 1420 1417
1468 1451 1446 1444 1443 1444 1443 1443 1443 1444 1443 1443 1443 1442 1443 1443 1444 1444 1445 1445 1444 1444 1444 1444 1443 1441 1440 1440 1438 1436 1435 1434 1432 1430 1429 1427 1426 1423 1424 1425 1426 1423 1422 1421
1445 1441 1441 1440 1440 1441 1441 1441 1440 1439 1438 1438 1437 1437 1438 1437 1439 1440 1440 1440 1440 1440 1439 1440 1439 1439 1438 1438 1437 1437 1437 1435 1433 1432 1431 1430 1428 1428 1429 1429 1428 1424 1425 1423
1441 1439 1439 1438 1438 1438 1437 1436 1435 1434 1433 1432 1432 1432 1433 1433 1434 1435 1436 1436 1435 1435 1434 1435 1435 1435 1436 1436 1436 1436 1436 1435 1433 1432 1431 1430 1429 1429 1429 1428 1425 1424 1425 1425
1439 1438 1434 1432 1431 1431 1431 1431 1430 1429 1428 1427 1427 1427 1428 1428 1429 1430 1430 1430 1429 1429 1428 1429 1430 1431 1432 1433 1433 1434 1434 1434 1433 1432 1432 1431 1430 1429 1429 1427 1426 1427 1425 1424
1432 1431 1428 1429 1427 1426 1426 1425 1424 1422 1422 1422 1422 1422 1422 1423 1424 1425 1425 1424 1423 1422 1422 1422 1424 1426 1428 1429 1430 1431 1432 1432 1433 1432 1432 1431 1430 1428 1428 1427 1426 1425 1424 1424
1425 1424 1423 1422 1421 1421 1419 1417 1415 1414 1415 1415 1415 1416 1417 1418 1419 1419 1419 1418 1417 1416 1416 1416 1418 1421 1423 1425 1427 1428 1429 1430 1431 1431 1431 1431 1430 1429 1428 1428 1427 1425 1424 1422
1421 1418 1417 1416 1415 1414 1412 1411 1410 1409 1409 1408 1408 1410 1411 1413 1414 1415 1414 1413 1412 1412 1411 1412 1414 1416 1418 1420 1422 1425 1426 1427 1428 1429 1429 1428 1427 1426 1426 1425 1425 1425 1424 1422
1415 1413 1413 1411 1410 1408 1407 1406 1405 1404 1403 1403 1404 1405 1407 1408 1409 1410 1409 1408 1408 1408 1408 1408 1410 1412 1414 1417 1419 1421 1422 1423 1424 1424 1425 1425 1424 1425 1425 1423 1423 1422 1420 1418
1410 1407 1406 1405 1404 1402 1401 1400 1400 1399 1399 1399 1400 1401 1403 1405 1405 1405 1405 1405 1405 1405 1405 1405 1406 1408 1410 1413 1415 1417 1418 1419 1420 1421 1421 1421 1422 1422 1421 1420 1420 1419 1418 1417
1404 1401 1400 1399 1398 1396 1394 1394 1394 1394 1395 1395 1397 1398 1400 1401 1401 1402 1402 1402 1402 1403 1402 1403 1403 1404 1406 1408 1411 1412 1414 1415 1416 1417 1418 1418 1418 1418 1418 1418 1418 1417 1417 1416
1398 1395 1394 1393 1392 1391 1390 1389 1389 1390 1391 1393 1394 1396 1397 1398 1398 1398 1399 1399 1400 1399 1400 1400 1401 1402 1403 1405 1407 1409 1410 1411 1412 1412 1413 1414 1414 1414 1414 1414 1414 1414 1413 1413
1392 1389 1388 1388 1387 1386 1385 1385 1386 1388 1389 1391 1393 1394 1395 1395 1395 1395 1396 1397 1397 1397 1397 1398 1399 1400 1401 1402 1404 1405 1406 1406 1407 1408 1408 1408 1408 1409 1409 1410 1410 1409 1409 1409
1385 1384 1383 1382 1381 1381 1381 1382 1384 1386 1388 1389 1391 1392 1393 1393 1392 1393 1394 1393 1393 1394 1395 1395 1396 1397 1398 1399 1400 1401 1401 1401 1402 1403 1403 1403 1403 1403 1404 1404 1405 1405 1405 1405
1379 1378 1377 1376 1376 1377 1378 1379 1382 1384 1386 1388 1389 1390 1390 1390 1390 1390 1391 1391 1391 1392 1392 1392 1393 1394 1395 1394 1394 1395 1396 1396 1397 1397 1397 1398 1398 1398 1398 1399 1399 1400 1401 1402
1374 1373 1372 1372 1372 1374 1376 1378 1380 1382 1384 1386 1387 1387 1387 1387 1388 1388 1389 1389 1389 1389 1389 1389 1389 1391 1389 1389 1389 1389 1389 1389 1390 1390 1390 1390 1390 1391 1392 1392 1392 1393 1394 1395
1370 1369 1369 1369 1370 1371 1373 1376 1378 1380 1382 1384 1385 1385 1385 1386 1386 1387 1387 1387 1387 1386 1386 1386 1385 1385 1384 1384 1383 1383 1382 1382 1382 1382 1383 1382 1382 1382 1383 1384 1385 1386 1387 1388
1367 1366 1367 1367 1368 1370 1372 1374 1377 1379 1381 1382 1383 1384 1384 1385 1385 1385 1385 1385 1385 1384 1384 1383 1382 1381 1380 1379 1378 1377 1376 1375 1375 1374 1373 1373 1374 1374 1374 1375 1375 1376 1377 1379